Regional Weather Roundup
Issued by NWS Jackson, KY

Home | Current Version | Previous Version | Text Only | Print | Product List | Glossary Off
Versions: 1 2 3 4 5 6 7 8 9 10 11 12 13 14 15 16 17 18 19 20 21 22 23 24 25 26 27 28 29 30 31 32 33 34 35 36 37 38 39 40 41 42 43 44 45 46 47 48 49 50

000
ASUS43 KJKL 010710
RWRJKL

EAST KENTUCKY HOURLY WEATHER ROUNDUP
NATIONAL WEATHER SERVICE JACKSON KY
300 AM EDT FRI AUG 01 2014

NOTE: "FAIR" INDICATES FEW OR NO CLOUDS BELOW 12,000 FEET WITH
NO SIGNIFICANT WEATHER AND/OR OBSTRUCTIONS TO VISIBILITY.

* THESE REPORTS ARE NOT UNDER NWS QUALITY CONTROL AND MAY NOT
  REPORT WEATHER SUCH AS PRECIPITATION AND FOG.

KYZ079-080-083-085-087-088-110-112-115-119-120-010800
...EASTERN KENTUCKY...

CITY           SKY/WX    TMP DP  RH WIND       PRES   REMARKS
JACKSON        MOCLDY    68  59  73 CALM      30.11F
LONDON         MOCLDY    66  60  81 CALM      30.10F
SOMERSET*      PTCLDY    63  63 100 CALM      30.10F
MONTICELLO*    MOCLDY    61  60  96 CALM      30.10F FOG
WILLIAMSBURG*    N/A     63  63 100 CALM      30.10S
MIDDLESBORO*   PTCLDY    62  61  98 CALM      30.11F
HARLAN APT*    CLOUDY    63  61  94 MISG      30.13S VSB 1/2
BLACK MTN*       N/A     59  54  82 SE2         N/A
PIKEVILLE APT* MOCLDY    66  61  82 CALM      30.11F
BIG SANDY*     CLOUDY    64  62  96 E3        30.11F
MOREHEAD APT*    N/A     63  61  94 CALM      30.12F
$$

KYZ035-036-041-042-044-050-067-078-099-010800
...CENTRAL KENTUCKY...

CITY           SKY/WX    TMP DP  RH WIND       PRES   REMARKS
MT STERLING*   PTCLDY    59  59 100 CALM      30.11F FOG
FLEMING/MASON* CLEAR     63  61  94 CALM      30.10F
DANVILLE*      PTCLDY    59  57  94 CALM      30.10F
RICHMOND*      PTCLDY    61  59  94 CALM      30.09F
LEXINGTON      CLEAR     64  59  83 CALM      30.10F
FRANKFORT      MOCLDY    62  59  90 CALM      30.08F
$$

KYZ091>093-OHZ055-061-077-WVZ005-015-034-035-042-010800
...SOUTHERN OHIO/WEST VIRGINIA...

CITY           SKY/WX    TMP DP  RH WIND       PRES   REMARKS
COVINGTON      CLEAR     64  59  83 CALM      30.09F
COLUMBUS       CLEAR     65  59  81 E3        30.10S
DAYTON         CLEAR     64  60  87 CALM      30.11F
WILMINGTON     CLOUDY    66  64  93 CALM      30.10F
HUNTINGTON     FOG       61  61 100 E3        30.09F VSB 1
CHARLESTON     PTCLDY    61  61 100 CALM      30.11F
PINEVILLE*     MOCLDY    63  63 100 MISG      30.20S
BECKLEY        CLOUDY    64  58  80 SE3       30.18F
BLUEFIELD      CLOUDY    64  55  72 VRB3      30.20F
$$

VAZ002-007-008-TNZ017-027-036-066-071-010800
...SOUTHWEST VIRGINIA/EAST TENNESSEE...

CITY           SKY/WX    TMP DP  RH WIND       PRES   REMARKS
WISE*          PTCLDY    61  61 100 CALM      30.17F
JONESVILLE*      N/A     61  61 100 CALM      30.13F
ABINGDON*      CLOUDY    67  60  77 E8        30.15F
BRISTOL        CLOUDY    66  61  84 N3        30.11F
KNOXVILLE      CLOUDY    68  65  90 NW5       30.07S
OAK RIDGE      PTCLDY    67  64  90 CALM      30.09F
CROSSVILLE     PTCLDY    64  59  83 CALM      30.11F
NASHVILLE      PTCLDY    67  62  84 CALM      30.06F
$$

...KEY TO REMARKS...
VSB - VISIBILITY IN MILES
WCI - WIND CHILL INDEX
HX  - HEAT INDEX

$$


USA.gov is the U.S. government's official web portal to all federal, state and local government web resources and services.